www.pogodaiklimat.ru

Погода и климат >> Архив погоды >> Россия >> Хабаровский край >> Веселая Горка


ПОГОДА в Веселой Горке

  • Прогноз погоды в Веселой Горке
  • Монитор погоды в Веселой Горке

АРХИВ ПОГОДЫ в Веселой Горке

Время (UTC), дата Ветер
(напр.,м/с)
 
Видим.   Явления Облачность Т
(С)
Тd
(С)
f
(%)
Тe
(С)
Тes
(С)
Комфортность P
(гПа)
Po
(гПа)
Тmin
(С)
Tmax
(С)
R
(мм)
R24
(мм)
S
(см)
03 12.09 З 1 50 км 4/4 600 м
[Sc diur, vesp]
+21.0 +1.9 28 +22 +29 комфорт 1015.3 992.0
06 12.09 Ю 2 50 км ясно +21.7 +5.3 34 +22 +27 комфорт 1013.8 990.6
09 12.09 штиль 0 50 км 3/0
[Ci]
+16.5 +6.3 51 +16 +16 1014.0 990.4 +22.4
12 12.09 штиль 0 50 км ясно +12.9 +6.9 67 +13 +13 1014.6 990.7
18 12.09 штиль 0 50 км ясно +7.3 +6.4 94 +6 +6 1012.7 988.3
21 12.09 штиль 0 50 км 10/0
[Ci]
+6.9 +6.3 96 +6 +6 1012.4 988.0 +6.0
00 13.09 В 1 50 км 10/0
[Cs]
+12.2 +7.9 75 +12 +17 1011.0 987.1
03 13.09 Ю 2 50 км 10/0
[Ac cast Ci sp]
+20.0 +9.4 50 +22 +27 комфорт 1007.3 984.1
06 13.09 ЮВ 2 50 км 10/4 600 м
[Sc Ac cast Cc]
+20.6 +11.3 55 +23 +25 комфорт 1004.3 981.2
09 13.09 Ю 2 50 км 10/10 600 м
[Sc]
+18.4 +10.9 62 +19 +19 1002.3 979.2 +22.3
12 13.09 штиль 0 50 км 10/10 600 м
[Sc]
+15.5 +10.1 70 +15 +15 1000.8 977.4
15 13.09 ЮЗ 1 н/о н/о +14.5 +8.7 68 +15 +15 999.0 975.6
18 13.09 ЮЗ 1 50 км 10/10 600 м
[Sc]
+13.8 +9.3 74 +14 +14 997.6 974.1
21 13.09 З 2 50 км 10/6 600 м
[Sc Ac cast Ci fib]
+14.6 +3.8 48 +14 +14 997.3 973.9 +13.1
00 14.09 ЮЗ 2 50 км 1/1 600 м
[Sc]
+16.9 -0.6 30 +17 +21 998.5 975.2
03 14.09 ЮЗ 3 50 км 3/3 600 м
[Cu Sc]
+18.6 -0.3 28 +19 +24 999.8 976.6
06 14.09 З 1 50 км 3/3 600 м
[Cb cap]
+18.3 -1.1 27 +19 +23 1001.7 978.4
09 14.09 СЗ 1 50 км ясно +14.5 -2.0 32 +15 +15 1005.0 981.3 +19.8
12 14.09 ЮЗ 1 50 км ясно +9.0 +0.6 56 +9 +9 1008.0 983.8
15 14.09 штиль 0 50 км 9/0
[Ac cast Ci fib]
+9.2 -2.4 44 +9 +9 1008.8 984.7
18 14.09 З 1 50 км 10/9 600 м
[Cb cap Ci sp]
+10.2 -2.6 41 +10 +10 1009.4 985.3
21 14.09 З 1 50 км 3/3 600 м
[Sc]
+8.1 -1.9 49 +8 +8 1010.5 986.2 +5.9
00 15.09 Ю 1 50 км 8/4 600 м
[Sc Ac trans]
+14.7 -0.6 35 +15 +17 1009.4 985.7
03 15.09 Ю 3 50 км 10/10 600 м
[Cb cap]
+17.8 -2.1 26 +18 +18 1007.1 983.7
06 15.09 Ю 3 50 км 8/4 600 м
[Cb cap Ac cast Ci]
+18.7 +5.2 41 +19 +21 1004.4 981.2
09 15.09 Ю 3 50 км 6/3 600 м
[Cu hum Ci fib]
+16.5 +7.5 55 +16 +16 1003.0 979.7 +19.5
12 15.09 З 1 50 км 6/0
[Ci]
+13.4 +8.8 74 +14 +14 1002.4 978.8
15 15.09 З 2 50 км 10/10 600 м
[Cb cap]
+13.5 +5.6 59 +13 +13 1003.3 979.7
18 15.09 СЗ 1 50 км 10/10 600 м
[Cb cap]
+11.4 +5.5 67 +11 +11 1002.8 979.0
21 15.09 З 2 50 км {ливн. осадки} 10/10 600 м
[Cb cap]
+10.8 -1.8 41 +10 +10 1003.6 979.7 +10.5 0.4
00 16.09 З 3
{10}
50 км {ливн. осадки} 1/1 600 м
[Sc]
+12.2 -8.2 23 +11 +15 1004.6 980.8 +9.6
03 16.09 З 2 50 км ясно +15.7 -6.5 21 +16 +25 1003.6 980.1
06 16.09 З 2 50 км ясно +16.2 -5.1 23 +16 +21 1003.5 980.0
09 16.09 З 2 50 км ясно +12.5 -5.6 28 +12 +12 1006.4 982.6 +16.9
12 16.09 ЮЗ 2 50 км ясно +11.0 -4.9 32 +10 +10 1008.9 984.8
15 16.09 З 1 50 км ясно +8.2 -4.9 39 +8 +8 1010.4 986.1
18 16.09 штиль 0 50 км ясно +4.9 -3.9 53 +5 +5 1010.9 986.3
21 16.09 З 1 50 км ясно +5.7 -5.7 44 +5 +5 1012.3 987.7 +1.8
00 17.09 ЮЗ 2 50 км 8/0
[Cc]
+10.8 -5.8 31 +10 +14 1012.2 988.1
03 17.09 В 1 50 км 3/0
[Cc]
+14.5 -5.9 24 +15 +25 1010.5 986.8
06 17.09 З 2 50 км 3/0
[Ac lent Cc]
+17.5 -5.4 20 +18 +21 1008.5 985.0
09 17.09 СЗ 1 50 км 9/0
[Cc]
+11.6 0.0 45 +12 +12 1008.3 984.4 +18.0
12 17.09 штиль 0 50 км 10/0
[Ci fib]
+9.3 +0.9 56 +9 +9 1008.1 984.0
15 17.09 штиль 0 н/о н/о +7.0 +3.0 76 +6 +6 1007.9 983.6
18 17.09 штиль 0 50 км 10/0
[Ci fib]
+5.8 +3.6 86 +5 +5 1007.3 982.9
21 17.09 штиль 0 50 км слаб. ливневой дождь 10/10 600 м
[Cb cap]
+5.5 +4.8 95 +4 +4 1006.6 982.3 +5.0 0.4
00 18.09 СВ 1 50 км туман поземный {ливн. осадки} 10/10 600 м
[Cb cap]
+7.7 +5.4 85 +7 +7 1006.2 982.0
03 18.09 С 1 50 км {ливн. осадки} 10/8 600 м
[Cb cap Ci fib]
+11.9 +5.1 63 +12 +14 1004.1 980.4
06 18.09 СВ 2 50 км 10/8 600 м
[Cb cap Ac lent Ci fib]
+13.2 +4.1 54 +13 +13 1002.6 979.0
09 18.09 ЮЗ 1 20 км слаб. ливневой дождь 10/10 600 м
[Cb cap]
+10.8 +5.0 67 +11 +11 1003.2 979.4 +13.9 1
12 18.09 С 3 20 км {ливн. осадки} 10/10 600 м
[Cb cap]
+9.8 +4.4 69 +8 +8 1002.8 978.9
15 18.09 ЮЗ 1
{11}
10 км в посл. час ливневой дождь 10/10 600 м
[Cb cap]
+8.3 +7.3 93 +7 +7 1003.3 979.2
18 18.09 С 3 10 км {ливн. осадки} 10/10 600 м
[Cb cap]
+8.7 +6.4 85 +6 +6 1003.6 979.6
21 18.09 С 2
{10}
20 км 10/9 600 м
[Cb cap Ci sp]
+8.3 +4.5 77 +7 +7 1005.5 981.4 +7.6 6
00 19.09 С 3
{11}
50 км 9/9 600 м
[Cb cap]
+9.3 +3.1 65 +7 +7 1008.1 984.0

 

Местоположение метеостанции Веселая Горка (Хабаровский край, Россия): широта 52.30 долгота 135.80 высота над уровнем моря 201 м.

В архиве по умолчанию представлена погода в Веселой Горке за последнюю неделю. Архивные данные за месяц целиком и за предыдущие месяцы, начиная с января 2011 года, Вы можете получить, выбрав интересующий диапазон дат из раскрывающегося списка и нажав кнопку "Ввод!".


*Определитесь, кто Вы:
робот инопланетянин человек

Внимание! Время в таблицах - всемирное. Для получения местного времени необходимо прибавить поправку, которая равна 10 ч.

Смотрите также архив погоды в соседних городах и на ближайших метеорологических станциях:

Погода в Им. Полины Осипенко (Хабаровский край, Россия) (49 км)
Погода в Бурукане (Хабаровский край, Россия) (85 км)
Погода в Хуларине (Хабаровский край, Россия) (112 км)
Погода в Софийском Прииске (Хабаровский край, Россия) (129 км)
Погода в Горине (Хабаровский край, Россия) (140 км)
Погода в Усть-Умальте (Хабаровский край, Россия) (193 км)
Погода в Комсомольске-на-Амуре (Хабаровский край, Россия) (214 км)
Погода в Экимчане (Амурская область, Россия) (214 км)
Погода в Удинске (Хабаровский край, Россия) (214 км)
Погода в Нижнетамбовском (Хабаровский край, Россия) (221 км)

Пояснения к столбцам:

Ветер - указаны скорость ветра в м/с - средняя за 10 мин, порывы в срок и между сроками (в фигурных скобках) и направление, откуда дует ветер: С - северный, СВ - северо-восточный, В - восточный, ЮВ - юго-восточный, Ю - южный, ЮЗ - юго-западный, З - западный, СЗ - северо-западный.
Видимость - горизонтальная дальность видимости в метрах или километрах. При видимости от 1 до 10 км при отсутствии осадков обычно наблюдается дымка, при ухудшении видимости до 1 км и менее - туман. В сухую погоду видимость может ухудшаться дымом, пылью или мглою.
Явления - указаны атмосферные явления, наблюдавшиеся в срок или в последний час перед сроком; фигурными скобками обозначены явления, наблюдавшиеся между сроками (за 1-3 часа до срока); квадратными скобками обозначены град или гололедные отложения с указанием их диаметра в мм.
Облачность - указаны через наклонную черту общая и нижняя облачность в баллах и высота нижней границы облаков в метрах; квадратными скобками обозначены формы облаков: Ci - перистые, Cs - перисто-слоистые, Cc - перисто-кучевые, Ac - высококучевые, As - высокослоистые, Sc - слоисто-кучевые, Ns - слоисто-дождевые, Cu - кучевые, Cb - кучево-дождевые. Подробнее классификацию облаков см. в Атласе облаков (PDF).
T - Температура воздуха - температура, измеренная на высоте 2 м над землей.
Td - Температура точки росы - температура, при понижении до которой содержащийся в воздухе водяной пар достигнет насыщения.
f - Относительная влажность воздуха - влажноcть воздуха, измеренная на высоте 2 м над землей.
Te - Эффективная температура - температура, которую ощущает одетый по сезону человек в тени. Характеристика душности погоды. При расчете учитывается влияние влажности воздуха и скорости ветра на теплоощущения человека.
Tes - Эффективная температура на солнце - температура, которую ощущает человек, с поправкой на солнечный нагрев. Характеристика знойности погоды. Зависит от высоты солнца над горизонтом, облачности и скорости ветра. Ночью, в пасмурную погоду, а также при ветре 12 м/с и более поправка равна нулю.
P - Атмосферное давление - приведенное к уровню моря атмосферное давление.
Po - Атмосферное давление - измеренное на уровне метеостанции атмосферное давление.
Tmin - Минимальная температура - минимум температуры воздуха на высоте 2 м над землей.
Tmax - Максимальная температура - максимум температуры воздуха на высоте 2 м над землей.
R - Количество осадков - Количество выпавших осадков за период времени, мм. При наведении курсора мыши на число - период времени, за который выпало указанное количество осадков.
R24 - Количество осадков - Количество выпавших осадков за 24 часа, мм.
S - Снежный покров - Высота снежного покрова, см. При наведении курсора мыши на число - состояние снежного покрова и степень покрытия местности в баллах.